User: anonymous   Login
Location: Caltech
(34.1382°N, 118.1253°W)
Time: 22:00:37
(UTC-07:00)
Language:

Aureole 3 Rocket - Orbit

View from above orbital plane
View from above orbital plane
View from above satellite
View from above satellite

Ground track
Ground track

The orbit data is extracted from the following two-line orbital elements,

1 12849U 81094B   15110.08473684  .00003927  00000-0  36701-3 0  9995
2 12849 082.4952 051.8876 0908403 015.4806 347.2248 13.49051546635483
Epoch (UTC): 20 April 2015 02:02:01
Eccentricity: 0.0908403
inclination: 82.4952°
perigee height: 398 km
apogee height: 1753 km
right ascension of ascending node: 51.8876°
argument of perigee: 15.4806°
revolutions per day: 13.49051546
mean anomaly at epoch: 347.2248°
orbit number at epoch: 63548

The dashed part of the orbit path shows where the satellite is in the earth's shadow,  

DLR